Kilmarnock, Virginia, United States (22482)
Lat: 37.71N, Lon: 76.38W
Wx Zone: VAZ078
Local Info
Past Weather Observations for Tuesday, July 22, 2014

NOTE: This archive is for the closest National Weather Service station to Kilmarnock. Information may differ from the station used for current weather conditions.

Click here for Long-term Archive

Time Weather Temperature Dewpoint Humidity Pressure Winds Precip Visibility
23:55
Overcast
73°F / 23°C 70°F / 21°C 89% 30.18 in
(1022 mb)
Calm - 10SM
23:35
Overcast
73°F / 23°C 70°F / 21°C 89% 30.21 in
(1023 mb)
E 3.5 mph
(E 6 kph)
- 10SM
23:15
Overcast
73°F / 23°C 70°F / 21°C 89% 30.21 in
(1023 mb)
Calm - 10SM
22:55
Overcast
73°F / 23°C 70°F / 21°C 89% 30.21 in
(1023 mb)
Calm - 10SM
22:35
Overcast
73°F / 23°C 70°F / 21°C 89% 30.21 in
(1023 mb)
ENE 3.5 mph
(ENE 6 kph)
- 10SM
22:15
Mostly Cloudy
73°F / 23°C 70°F / 21°C 89% 30.21 in
(1023 mb)
NNE 4.6 mph
(NNE 7 kph)
- 10SM
21:55
Clear
73°F / 23°C 70°F / 21°C 89% 30.21 in
(1023 mb)
NE 3.5 mph
(NE 6 kph)
- 10SM
21:35
Clear
73°F / 23°C 70°F / 21°C 89% 30.21 in
(1023 mb)
ENE 3.5 mph
(ENE 6 kph)
- 10SM
21:15
Clear
75°F / 24°C 70°F / 21°C 83% 30.18 in
(1022 mb)
E 4.6 mph
(E 7 kph)
- 10SM
20:55
Clear
75°F / 24°C 70°F / 21°C 83% 30.18 in
(1022 mb)
E 4.6 mph
(E 7 kph)
- 10SM
20:35
Clear
75°F / 24°C 70°F / 21°C 83% 30.18 in
(1022 mb)
SSE 4.6 mph
(SSE 7 kph)
- 10SM
20:15
Clear
75°F / 24°C 70°F / 21°C 83% 30.18 in
(1022 mb)
ESE 4.6 mph
(ESE 7 kph)
- 10SM
19:55
Clear
75°F / 24°C 70°F / 21°C 83% 30.18 in
(1022 mb)
SE 4.6 mph
(SE 7 kph)
- 10SM
19:35
Partly Cloudy
77°F / 25°C 70°F / 21°C 79% 30.18 in
(1022 mb)
ESE 4.6 mph
(ESE 7 kph)
- 10SM
19:15
Partly Cloudy
77°F / 25°C 70°F / 21°C 79% 30.18 in
(1022 mb)
E 5.8 mph
(E 9 kph)
- 10SM
18:55
Mostly Cloudy
79°F / 26°C 70°F / 21°C 74% 30.18 in
(1022 mb)
SE 4.6 mph
(SE 7 kph)
- 10SM
18:35
Overcast
79°F / 26°C 70°F / 21°C 74% 30.18 in
(1022 mb)
SE 4.6 mph
(SE 7 kph)
- 10SM
18:15
Overcast
79°F / 26°C 70°F / 21°C 74% 30.18 in
(1022 mb)
SE 8.1 mph
(SE 13 kph)
- 10SM
17:55
Overcast
81°F / 27°C 70°F / 21°C 70% 30.18 in
(1022 mb)
SE 5.8 mph
(SE 9 kph)
- 10SM
17:35
Overcast
81°F / 27°C 70°F / 21°C 70% 30.18 in
(1022 mb)
SE 6.9 mph
(SE 11 kph)
- 10SM
17:15
Overcast
81°F / 27°C 70°F / 21°C 70% 30.18 in
(1022 mb)
SE 6.9 mph
(SE 11 kph)
- 10SM
16:55
Overcast
81°F / 27°C 72°F / 22°C 74% 30.18 in
(1022 mb)
SE 3.5 mph
(SE 6 kph)
- 10SM
16:35
Overcast
81°F / 27°C 70°F / 21°C 70% 30.18 in
(1022 mb)
ENE 4.6 mph
(ENE 7 kph)
- 10SM
16:15
Overcast
81°F / 27°C 70°F / 21°C 70% 30.18 in
(1022 mb)
E 5.8 mph
(E 9 kph)
- 10SM
15:55
Overcast
81°F / 27°C 70°F / 21°C 70% 30.18 in
(1022 mb)
ENE 4.6 mph
(ENE 7 kph)
- 10SM
15:35
Overcast
81°F / 27°C 68°F / 20°C 66% 30.18 in
(1022 mb)
ENE 5.8 mph
(ENE 9 kph)
- 10SM
15:15
Overcast
81°F / 27°C 70°F / 21°C 70% 30.18 in
(1022 mb)
NE 4.6 mph
(NE 7 kph)
- 10SM
14:55
Overcast
81°F / 27°C 70°F / 21°C 70% 30.18 in
(1022 mb)
E 5.8 mph
(E 9 kph)
- 10SM
14:35
Overcast
82°F / 28°C 68°F / 20°C 62% 30.18 in
(1022 mb)
E 8.1 mph
(E 13 kph)
- 10SM
14:15
Overcast
81°F / 27°C 70°F / 21°C 70% 30.18 in
(1022 mb)
E 4.6 mph
(E 7 kph)
- 10SM
13:55
Overcast
81°F / 27°C 68°F / 20°C 66% 30.18 in
(1022 mb)
SE 5.8 mph
(SE 9 kph)
- 10SM
13:35
Overcast
81°F / 27°C 68°F / 20°C 66% 30.18 in
(1022 mb)
E 5.8 mph
(E 9 kph)
- 10SM
13:15
Overcast
81°F / 27°C 66°F / 19°C 62% 30.18 in
(1022 mb)
ESE 4.6 mph
(ESE 7 kph)
- 10SM
12:55
Overcast
81°F / 27°C 66°F / 19°C 62% 30.18 in
(1022 mb)
E 6.9 mph
(E 11 kph)
- 10SM
12:35
Overcast
81°F / 27°C 68°F / 20°C 66% 30.18 in
(1022 mb)
SE 3.5 mph
(SE 6 kph)
- 10SM
12:15
Overcast
81°F / 27°C 68°F / 20°C 66% 30.18 in
(1022 mb)
E 4.6 mph
(E 7 kph)
- 10SM
11:55
Overcast
81°F / 27°C 68°F / 20°C 66% 30.21 in
(1023 mb)
SE 3.5 mph
(SE 6 kph)
- 10SM
11:35
Overcast
81°F / 27°C 68°F / 20°C 66% 30.21 in
(1023 mb)
E 3.5 mph
(E 6 kph)
- 10SM
11:15
Overcast
79°F / 26°C 68°F / 20°C 70% 30.21 in
(1023 mb)
E 3.5 mph
(E 6 kph)
- 10SM
10:55
Overcast
81°F / 27°C 70°F / 21°C 70% 30.21 in
(1023 mb)
E 3.5 mph
(E 6 kph)
- 10SM
10:35
Overcast
79°F / 26°C 70°F / 21°C 74% 30.21 in
(1023 mb)
ESE 3.5 mph
(ESE 6 kph)
- 10SM
10:15
Mostly Cloudy
79°F / 26°C 68°F / 20°C 70% 30.21 in
(1023 mb)
ENE 3.5 mph
(ENE 6 kph)
- 10SM
09:55
Overcast
79°F / 26°C 70°F / 21°C 74% 30.21 in
(1023 mb)
NE 3.5 mph
(NE 6 kph)
- 10SM
09:35
Mostly Cloudy
79°F / 26°C 70°F / 21°C 74% 30.18 in
(1022 mb)
ENE 3.5 mph
(ENE 6 kph)
- 10SM
09:15
Overcast
77°F / 25°C 70°F / 21°C 79% 30.18 in
(1022 mb)
ENE 3.5 mph
(ENE 6 kph)
- 10SM
08:55
Overcast
77°F / 25°C 70°F / 21°C 79% 30.18 in
(1022 mb)
E 6.9 mph
(E 11 kph)
- 10SM
08:35
Overcast
77°F / 25°C 70°F / 21°C 79% 30.18 in
(1022 mb)
E 4.6 mph
(E 7 kph)
- 10SM
08:15
Overcast
75°F / 24°C 70°F / 21°C 83% 30.18 in
(1022 mb)
E 4.6 mph
(E 7 kph)
- 10SM
07:55
Overcast
75°F / 24°C 70°F / 21°C 83% 30.18 in
(1022 mb)
E 3.5 mph
(E 6 kph)
- 10SM
07:35
Mostly Cloudy
75°F / 24°C 70°F / 21°C 83% 30.18 in
(1022 mb)
E 3.5 mph
(E 6 kph)
- 10SM
07:15
Mostly Cloudy
75°F / 24°C 70°F / 21°C 83% 30.18 in
(1022 mb)
ENE 4.6 mph
(ENE 7 kph)
- 10SM
06:55
Partly Cloudy
73°F / 23°C 70°F / 21°C 89% 30.18 in
(1022 mb)
ENE 3.5 mph
(ENE 6 kph)
- 10SM
06:35
Partly Cloudy
73°F / 23°C 70°F / 21°C 89% 30.18 in
(1022 mb)
E 4.6 mph
(E 7 kph)
- 10SM
06:15
Overcast
73°F / 23°C 70°F / 21°C 89% 30.18 in
(1022 mb)
E 3.5 mph
(E 6 kph)
- 10SM
05:55
Overcast
73°F / 23°C 70°F / 21°C 89% 30.15 in
(1021 mb)
Calm - 10SM
05:35
Overcast
73°F / 23°C 70°F / 21°C 89% 30.15 in
(1021 mb)
E 4.6 mph
(E 7 kph)
- 10SM
05:15
Mostly Cloudy
73°F / 23°C 70°F / 21°C 89% 30.15 in
(1021 mb)
ESE 3.5 mph
(ESE 6 kph)
- 10SM
04:55
Mostly Cloudy
73°F / 23°C 70°F / 21°C 89% 30.15 in
(1021 mb)
E 4.6 mph
(E 7 kph)
- 10SM
04:35
Overcast
73°F / 23°C 70°F / 21°C 89% 30.15 in
(1021 mb)
E 5.8 mph
(E 9 kph)
- 10SM
04:15
Overcast
73°F / 23°C 70°F / 21°C 89% 30.15 in
(1021 mb)
E 5.8 mph
(E 9 kph)
- 10SM
03:55
Overcast
73°F / 23°C 70°F / 21°C 89% 30.15 in
(1021 mb)
E 5.8 mph
(E 9 kph)
- 10SM
03:35
Overcast
73°F / 23°C 70°F / 21°C 89% 30.15 in
(1021 mb)
E 4.6 mph
(E 7 kph)
- 10SM
03:15
Overcast
73°F / 23°C 70°F / 21°C 89% 30.12 in
(1020 mb)
E 3.5 mph
(E 6 kph)
- 10SM
02:55
Overcast
73°F / 23°C 70°F / 21°C 89% 30.12 in
(1020 mb)
NE 4.6 mph
(NE 7 kph)
- 10SM
02:35
Overcast
73°F / 23°C 70°F / 21°C 89% 30.12 in
(1020 mb)
E 4.6 mph
(E 7 kph)
- 10SM
02:15
Overcast
73°F / 23°C 70°F / 21°C 89% 30.12 in
(1020 mb)
E 5.8 mph
(E 9 kph)
- 10SM
01:55
Overcast
73°F / 23°C 70°F / 21°C 89% 30.12 in
(1020 mb)
E 3.5 mph
(E 6 kph)
- 2 1/2SM
01:35
Overcast
73°F / 23°C 70°F / 21°C 89% 30.12 in
(1020 mb)
E 3.5 mph
(E 6 kph)
- 2SM
01:15
Overcast
73°F / 23°C 70°F / 21°C 89% 30.12 in
(1020 mb)
E 4.6 mph
(E 7 kph)
- 5SM
00:55
Overcast
73°F / 23°C 72°F / 22°C 94% 30.12 in
(1020 mb)
E 3.5 mph
(E 6 kph)
- 1 3/4SM
00:35
Overcast
73°F / 23°C 70°F / 21°C 89% 30.15 in
(1021 mb)
Calm - 5SM
00:15
Overcast
73°F / 23°C 70°F / 21°C 89% 30.15 in
(1021 mb)
ENE 3.5 mph
(ENE 6 kph)
- 2SM
Time Weather Temperature Dewpoint Humidity Pressure Winds Precip Visibility


Weather for websites

WeatherForYou.com, LLC is not responsible for any damages or problems caused by this service. Current weather conditions are obtained from the closest station including government and personal stations which may have varying degrees of accuracy. Weather forecasts are derived from the NOAA NDFD. Like all things, this site belongs to Jesus Christ... He just trusts me to maintain it. If you have any questions or comments email webmaster@weatherforyou.com

Copyright © 2014, WeatherForYou.com LLC. All rights reserved.